FALCON 9 R/B (45242 NORAD) Tracking and Keplerian Element Data

This shows tracking and keplerian element data for the satellite.

Feedback or suggestion? Click here.




ElementValue
Catalog45242
NameFALCON 9 R/B
Epoch Orbit296
Epoch Day65.01434962
Epoch Year2020
RAAN184.6375
Inclination52.9811
Eccentricity0.0031513
Argument of Perigee98.7842
Mean Anonmoly261.6157
Mean Motion16.36621519
Decay Rate0.04382623
L11 45242U 20012BS 20065.01434962 .04382623 12270-4 35023-3 0 9994
L22 45242 52.9811 184.6375 0031513 98.7842 261.6157 16.36621519 2965

Live tracking and technical data element details for FALCON 9 R/B (NORAD 45242). FALCON 9 R/B can be tracked NOW for your location showing map with azimuth and elevation plus other details from your city location.

Track the satellite on the map from your city or location and see movement details for azimuth, elevation, latitude, longitude, range, height, and movement on the map or in text.







IsCatalogInMostPopularTable: catalog: 45242, numindb: 34
Update: records affected: 1



GetName: 45242 FALCON 9 R/B

Hit Count: updated at: Thu, 09 Jul 2020 01:41:16 GMT